User: anonymous   Login
Location: Voyageurs National Park
(48.5020°N, 92.9292°W)
Time: 09:43:27
(UTC-06:00)
Language:

Terra - Orbit

View from above orbital plane
View from above orbital plane
View from above satellite
View from above satellite

Ground track
Ground track

The orbit data is extracted from the following two-line orbital elements,

1 25994U 99068A   14332.15342969  .00000770  00000-0  18086-3 0  8644
2 25994 098.2099 044.5358 0000881 082.0266 278.1054 14.57104273794942
Epoch (UTC): 28 November 2014 03:40:56
Eccentricity: 0.0000881
inclination: 98.2099°
perigee height: 702 km
apogee height: 703 km
right ascension of ascending node: 44.5358°
argument of perigee: 82.0266°
revolutions per day: 14.57104273
mean anomaly at epoch: 278.1054°
orbit number at epoch: 79494

The dashed part of the orbit path shows where the satellite is in the earth's shadow,  

DLR